This demonstration page uses our WeatherBlox Daily Observations layout. Learn more.

Left ArrowRight Arrow

36.17497, -115.13722

Hourly Observations for September 28, 2022

Temp ( °F °C ) Dew Point ( °F °C ) Humidity (%) Winds ( mph kmh ) Pressure ( in mb ) Visibility ( mi km ) Precip ( " mm )
12:53 am 00:53 Clear 83 28.3 45 7.2 26 26 WNW 6 9 29.95 1014 10 16 0.00 0.00
1:53 am 01:53 Clear 82 27.8 45 7.2 27 27 WNW 5 7 29.95 1014 10 16 0.00 0.00
2:53 am 02:53 Clear 81 27.2 46 7.8 29 29 Calm 29.95 1014 10 16 0.00 0.00
3:53 am 03:53 Clear 81 27.2 45 7.2 28 28 Calm 29.96 1014 10 16 0.00 0.00
4:53 am 04:53 Partly Cloudy 80 26.7 45 7.2 29 29 WNW 6 9 29.96 1015 10 16 0.00 0.00
5:37 am 05:37 Cloudy with Thunderstorms 81 27.2 46 7.8 29 29 SW 6 9 29.89 1012 10 16 0.00 0.00
5:53 am 05:53 Cloudy with Thunderstorms 85 29.4 47 8.3 27 27 VRB 6 9 29.98 1015 10 16 0.00 0.00
6:16 am 06:16 Mostly Cloudy with Light Rain 79 26.1 57 13.9 47 47 ESE 7 11 29.91 1013 10 16 0.01 0.25
6:21 am 06:21 Mostly Cloudy with Thunderstorms 80 26.7 55 12.8 42 42 ESE 10 17 29.91 1013 10 16 0.01 0.25
6:53 am 06:53 Cloudy with Thunderstorms 77 25 57 13.9 50 50 ENE 16 26 30.02 1017 10 16 0.01 0.25
7:08 am 07:08 Mostly Cloudy with Thunderstorms 78 25.6 54 12.2 43 43 E 14 22 29.95 1014 10 16 0.00 0.00
7:17 am 07:17 Mostly Cloudy with Nearby Thunderstorms 78 25.6 54 12.2 43 43 ESE 12 19 29.96 1015 10 16 0.00 0.00
7:27 am 07:27 Mostly Cloudy 76 24.4 58 14.4 54 54 E 5 7 29.99 1016 10 16 0.00 0.00
7:38 am 07:38 Mostly Cloudy with Nearby Thunderstorms 76 24.4 60 15.6 58 58 NE 10 17 29.99 1016 10 16 0.00 0.00
7:46 am 07:46 Partly Cloudy with Thunderstorms 77 25 59 15 54 54 ENE 8 13 29.98 1015 10 16 0.00 0.00
7:53 am 07:53 Partly Cloudy with Thunderstorms 76 24.4 60 15.6 58 58 NE 7 11 30.07 1018 10 16 0.00 0.00
8:01 am 08:01 Partly Cloudy with Nearby Thunderstorms 77 25 60 15.6 56 56 NNE 6 9 29.98 1015 10 16 0.00 0.00
8:45 am 08:45 Mostly Cloudy with Thunderstorms 77 25 61 16.1 58 58 N 3 6 30.01 1016 10 16 0.00 0.00
8:53 am 08:53 Mostly Cloudy with Thunderstorms 77 25 61 16.1 58 58 NNW 5 7 30.09 1019 10 16 0.00 0.00
9:00 am 09:00 Mostly Cloudy with Nearby Thunderstorms 77 25 60 15.6 56 56 N 9 15 29.98 1015 8 13 0.01 0.25
9:32 am 09:32 Mostly Cloudy with Thunderstorms 78 25.6 61 16.1 56 56 WNW 7 11 30.01 1016 10 16 0.03 0.76
9:53 am 09:53 Sunny with Nearby Thunderstorms 80 26.7 60 15.6 51 51 N 9 15 30.10 1019 10 16 0.03 0.76
10:16 am 10:16 Sunny 82 27.8 60 15.6 47 47 ENE 6 9 29.98 1015 10 16 0.00 0.00
10:53 am 10:53 Sunny 81 27.2 60 15.6 49 49 SE 5 7 30.10 1019 10 16 0.00 0.00
11:53 am 11:53 Sunny 86 30 59 15 40 40 E 9 15 30.08 1019 10 16 0.00 0.00
12:53 pm 12:53 Sunny 88 31.1 56 13.3 34 34 E 15 24 30.06 1018 10 16 0.00 0.00
1:53 pm 13:53 Sunny 89 31.7 53 11.7 29 29 ESE 12 19 30.04 1017 10 16 0.00 0.00
2:53 pm 14:53 Sunny 90 32.2 52 11.1 27 27 undefined N/A 30.01 1016 10 16 0.00 0.00
3:53 pm 15:53 Sunny 90 32.2 52 11.1 27 27 SE 5 7 29.99 1016 10 16 0.00 0.00
4:53 pm 16:53 Sunny 91 32.8 52 11.1 27 27 ESE 8 13 29.98 1015 10 16 0.00 0.00
5:53 pm 17:53 Sunny 89 31.7 53 11.7 29 29 ESE 7 11 29.98 1015 10 16 0.00 0.00
6:53 pm 18:53 Clear 86 30 56 13.3 36 36 SE 7 11 29.99 1016 10 16 0.00 0.00
7:53 pm 19:53 Clear 85 29.4 56 13.3 37 37 S 5 7 30.01 1016 10 16 0.00 0.00
8:53 pm 20:53 Clear 83 28.3 56 13.3 40 40 Calm 30.02 1017 10 16 0.00 0.00
9:53 pm 21:53 Clear 82 27.8 55 12.8 40 40 SSW 3 6 30.03 1017 10 16 0.00 0.00
10:53 pm 22:53 Clear 81 27.2 55 12.8 41 41 SSW 3 6 30.03 1017 10 16 0.00 0.00
11:53 pm 23:53 Clear 81 27.2 55 12.8 41 41 Calm 30.01 1016 10 16 0.00 0.00

Powered by AerisWeather